Photometre #749[NE_1.6_Dp] Strzyzow AOT

File : 20200926_749.hum

26/09/2020,05:21:45,TEMP=16.5,BA=5.60,STAT.A,ExtBa=13.50
26/09/2020,05:25:48,TEMP=16.6,BA=5.60,STAT.A,ExtBa=13.50
26/09/2020,05:30:33,TEMP=16.7,BA=5.56,STAT.A,ExtBa=13.50
26/09/2020,05:36:11,TEMP=16.6,BA=5.56,STAT.A,ExtBa=13.60
26/09/2020,05:43:01,TEMP=16.6,BA=5.56,STAT.A,ExtBa=13.50
26/09/2020,05:51:29,TEMP=16.7,BA=5.60,STAT.A,ExtBa=13.60
26/09/2020,06:02:13,TEMP=17.1,BA=5.60,STAT.B,ExtBa=13.60
26/09/2020,06:07:23,TEMP=17.3,BA=5.60,STAT.A,ExtBa=13.50
26/09/2020,06:13:12,TEMP=17.3,BA=5.48,STAT.A,ExtBa=13.50
26/09/2020,06:19:47,TEMP=17.3,BA=5.48,STAT.A,ExtBa=13.50
26/09/2020,06:27:19,TEMP=17.4,BA=5.40,STAT.A,ExtBa=13.60
26/09/2020,06:36:02,TEMP=17.6,BA=5.48,STAT.C,ExtBa=13.50
26/09/2020,06:46:57,TEMP=18.4,BA=5.40,STAT.b=17.0
26/09/2020,06:47:38,TEMP=18.5,BA=5.40,STAT.A,ExtBa=12.90
26/09/2020,06:58:32,TEMP=18.2,BA=5.44,STAT.A,ExtBa=13.30
26/09/2020,07:13:30,TEMP=18.2,BA=5.60,STAT.A,ExtBa=13.40
26/09/2020,07:24:18,TEMP=19.0,BA=5.48,STAT.F,ExtBa=13.40
26/09/2020,07:35:54,TEMP=19.9,BA=5.40,STAT.b=17.0
26/09/2020,07:39:33,TEMP=19.6,BA=5.40,STAT.D,ExtBa=13.00
26/09/2020,07:54:16,TEMP=19.3,BA=5.56,STAT.D,ExtBa=13.30
26/09/2020,08:09:16,TEMP=19.1,BA=5.60,STAT.D,ExtBa=13.40
26/09/2020,08:24:18,TEMP=19.2,BA=5.56,STAT.F,ExtBa=13.40
26/09/2020,08:39:16,TEMP=19.1,BA=5.56,STAT.D,ExtBa=13.50
26/09/2020,08:54:16,TEMP=18.7,BA=5.56,STAT.D,ExtBa=13.40
26/09/2020,09:09:16,TEMP=18.6,BA=5.56,STAT.D,ExtBa=13.50
26/09/2020,09:24:18,TEMP=18.4,BA=5.56,STAT.F,ExtBa=13.50
26/09/2020,09:39:16,TEMP=18.2,BA=5.56,STAT.D,ExtBa=13.50
26/09/2020,09:54:16,TEMP=18.2,BA=5.56,STAT.D,ExtBa=13.60
26/09/2020,10:09:16,TEMP=17.9,BA=5.56,STAT.D,ExtBa=13.60
26/09/2020,10:24:18,TEMP=16.6,BA=5.56,STAT.F,ExtBa=13.60
26/09/2020,10:39:17,TEMP=15.9,BA=5.56,STAT.D,ExtBa=13.60
26/09/2020,10:54:17,TEMP=15.2,BA=5.56,STAT.D,ExtBa=13.60
26/09/2020,11:09:16,TEMP=14.9,BA=5.60,STAT.D,ExtBa=13.60
26/09/2020,11:24:18,TEMP=14.7,BA=5.60,STAT.F,ExtBa=13.60
26/09/2020,11:39:16,TEMP=14.5,BA=5.60,STAT.D,ExtBa=13.70
26/09/2020,11:54:16,TEMP=14.7,BA=5.64,STAT.D,ExtBa=13.60
26/09/2020,12:09:16,TEMP=15.3,BA=5.60,STAT.D,ExtBa=13.50
26/09/2020,12:24:18,TEMP=15.4,BA=5.64,STAT.F,ExtBa=13.60
26/09/2020,12:39:16,TEMP=15.6,BA=5.64,STAT.D,ExtBa=13.50
26/09/2020,12:54:16,TEMP=15.7,BA=5.64,STAT.D,ExtBa=13.60
26/09/2020,13:09:16,TEMP=15.7,BA=5.64,STAT.D,ExtBa=13.50
26/09/2020,13:24:17,TEMP=16.2,BA=5.64,STAT.F,ExtBa=13.50
26/09/2020,13:35:04,TEMP=16.3,BA=5.64,STAT.A,ExtBa=13.50
26/09/2020,13:50:02,TEMP=16.1,BA=5.60,STAT.A,ExtBa=13.60
26/09/2020,14:02:17,TEMP=15.5,BA=5.64,STAT.A,ExtBa=13.50
26/09/2020,14:12:32,TEMP=15.0,BA=5.64,STAT.C,ExtBa=13.50
26/09/2020,14:21:15,TEMP=14.7,BA=5.64,STAT.A,ExtBa=13.50
26/09/2020,14:28:47,TEMP=14.8,BA=5.64,STAT.A,ExtBa=13.50
26/09/2020,14:35:22,TEMP=14.7,BA=5.40,STAT.A,ExtBa=13.50
26/09/2020,14:41:11,TEMP=14.7,BA=5.60,STAT.A,ExtBa=13.50
26/09/2020,14:46:21,TEMP=14.6,BA=5.60,STAT.B,ExtBa=13.50
26/09/2020,14:57:05,TEMP=14.2,BA=5.60,STAT.A,ExtBa=13.50
26/09/2020,15:05:33,TEMP=14.1,BA=5.48,STAT.A,ExtBa=13.50
26/09/2020,15:12:23,TEMP=14.0,BA=5.64,STAT.A,ExtBa=13.50
26/09/2020,15:18:01,TEMP=14.0,BA=5.64,STAT.A,ExtBa=13.50
26/09/2020,15:22:46,TEMP=14.1,BA=5.44,STAT.A,ExtBa=13.50
26/09/2020,15:26:49,TEMP=14.1,BA=5.44,STAT.A,ExtBa=13.40